Вернуться в каталог

ONEWEB-0613

АктивенСвязьPO
NORAD 56071·PAYLOAD·🇬🇧 United Kingdom

Запущен Mar 26, 2023 с Satish Dhawan Space Centre

Loading…

Ближайшие Пролёты (ближайшие 24 часа)

TLE

СвежийSource: CelesTrak SupGP

Эпоха: Sep 14, 2026, 18:46 UTC

1 56071C 23043AB  26257.78213380  .00001979  00000+0  52639-2 0  2574
2 56071  87.8984 241.3559 0002023  78.0969 318.0254 13.15547017    18

Отслеживайте ONEWEB-0613 в реальном времени с AllMySat

Download on the App Store